Home   Weather   Ibbenbüren   Past weeks

Flag for Germany Past Weather in Ibbenbüren, North Rhine-Westphalia, Germany — Yesterday and Last 2 Weeks

Now
55 °F

Sunny.


Feels Like: 53 °F
Forecast: 46 / 56 °F
Wind: 9 mph from North

Location: Muenster / Osnabrueck

Current Time: Apr 30, 2017 at 11:16:46 am

Latest Report: Apr 30, 2017 at 10:50 am


Visibility: 10 mi

Pressure: 29.95 "Hg

Humidity: 44%

Dew Point: 34 °F

Location of IbbenbürenLocation

Past Weather in Ibbenbüren — Graph

°F

Ibbenbüren Temperature Yesterday

Maximum temperature yesterday: 55 °F (at 4:50 pm)
Minimum temperature yesterday: 37 °F (at 12:20 am)
Average temperature yesterday: 45 °F

High & Low Weather Summary for the Past Weeks

 TemperatureHumidityPressure
High57 °F (Apr 24, 1:50 pm)100% (Apr 18, 3:20 am)30.63 "Hg (Apr 18, 3:20 am)
Low27 °F (Apr 20, 4:20 am)30% (Apr 20, 4:50 pm)29.65 "Hg (Apr 25, 3:20 am)
Average43 °F69%30.12 "Hg
* Reported Apr 15 10:20 am — Apr 30 10:20 am, Ibbenbüren, Weather by CustomWeather, © 2017

Note: Actual official high and low records may vary slightly from our data, if they occured in-between our weather recording intervals... More about our weather records

Advertising

Ibbenbüren Weather History for the Previous 24 Hours

Scroll right to see more
 ConditionsComfort  
Time TempWeatherWind HumidityBarometerVisibility
10:20 am
Sun, Apr 30
54 °FPassing clouds.12 mph44%29.98 "HgN/A
9:50 am52 °FPassing clouds.10 mph47%29.98 "HgN/A
9:20 am50 °FPassing clouds.10 mph47%30.01 "HgN/A
8:50 am48 °FPassing clouds.8 mph50%30.01 "HgN/A
8:20 am46 °FPassing clouds.8 mph53%30.01 "HgN/A
7:50 am45 °FSunny.7 mph57%30.01 "Hg10 mi
7:20 am43 °FSunny.5 mph61%30.01 "Hg10 mi
6:50 am41 °FSunny.6 mph61%30.01 "Hg10 mi
6:20 am39 °FPassing clouds.3 mph65%30.04 "HgN/A
5:50 am39 °FPassing clouds.3 mph65%30.04 "HgN/A
5:20 am37 °FPassing clouds.3 mph70%30.04 "HgN/A
4:50 am37 °FPassing clouds.3 mph70%30.04 "HgN/A
4:20 am37 °FPassing clouds.3 mph70%30.04 "HgN/A
3:50 am39 °FClear.2 mph65%30.04 "Hg10 mi
3:20 am41 °FPassing clouds.3 mph66%30.04 "HgN/A
2:50 am41 °FPassing clouds.3 mph66%30.04 "HgN/A
2:20 am41 °FPassing clouds.5 mph66%30.04 "HgN/A
1:50 am41 °FPassing clouds.3 mph66%30.04 "HgN/A
1:20 am41 °FPassing clouds.5 mph66%30.04 "HgN/A
12:50 am41 °FPassing clouds.3 mph66%30.07 "HgN/A
12:20 am43 °FPassing clouds.3 mph66%30.07 "HgN/A
11:50 pm
Sat, Apr 29
41 °FPassing clouds.3 mph70%30.07 "HgN/A
11:20 pm41 °FClear.2 mph70%30.07 "Hg10 mi
10:50 pm45 °FClear.2 mph61%30.07 "Hg10 mi
10:20 pm45 °FClear.2 mph61%30.07 "Hg10 mi
9:50 pm46 °FPassing clouds.3 mph57%30.07 "HgN/A
9:20 pm46 °FPassing clouds.3 mph57%30.07 "HgN/A
8:50 pm48 °FClear.3 mph54%30.04 "Hg10 mi
8:20 pm52 °FSunny.2 mph47%30.04 "Hg10 mi
7:50 pm54 °FPassing clouds.3 mph41%30.04 "HgN/A
7:20 pm54 °FSunny.3 mph41%30.04 "Hg10 mi
6:50 pm54 °FSunny.3 mph44%30.04 "Hg10 mi
6:20 pm54 °FPassing clouds.7 mph44%30.04 "HgN/A
5:50 pm55 °FSunny.3 mph41%30.07 "Hg10 mi
5:20 pm54 °FSunny.2 mph44%30.07 "Hg10 mi
4:50 pm55 °FSunny.6 mph41%30.07 "Hg10 mi
4:20 pm54 °FPartly sunny.9 mph44%30.07 "HgN/A
3:50 pm54 °FPassing clouds.6 mph41%30.07 "HgN/A
3:20 pm52 °FPassing clouds.7 mph47%30.07 "HgN/A
2:50 pm52 °FPartly sunny.9 mph44%30.07 "HgN/A
2:20 pm52 °FSunny.3 mph47%30.07 "Hg10 mi
1:50 pm50 °FPartly sunny.7 mph50%30.07 "HgN/A
1:20 pm50 °FPartly sunny.7 mph50%30.07 "HgN/A
12:50 pm50 °FScattered clouds.5 mph47%30.07 "HgN/A
12:20 pm50 °FScattered clouds.9 mph47%30.07 "HgN/A
11:50 am50 °FScattered clouds.7 mph50%30.07 "HgN/A
11:20 am46 °FScattered clouds.8 mph62%30.07 "HgN/A
Weather by CustomWeather, © 2017

See weather overviewHow to use our weather pages